Other Surface Observations
Issued by NWS

Home | Current Version | Previous Version | Text Only | Print | Product List | Glossary On
Versions: 1 2 3 4 5 6 7 8 9 10 11 12 13 14 15 16 17 18 19 20 21 22 23 24 25 26 27 28 29 30 31 32 33 34 35 36 37 38 39 40 41 42 43 44 45 46 47 48 49 50
000
SXUS52 KTAE 231619
OSOTAE
OSOTAE
North Florida/South Alabama/Southwest Georgia Weather Roundup
National Weather Service Tallahassee Florida
1200 PM EDT WED AUG 23 2017

Note: "fair" indicates few or no clouds below 12,000 feet with no
significant weather and/or obstructions to visibility.

!FLZ017-115-028-034-025-231700
...North Florida...

CITY           SKY/WX    TMP DP  RH WIND       PRES   REMARKS
TALLAHASSEE    MOSUNNY   90  74  59 CALM      29.98S HX  99
APALACHICOLA   MOSUNNY   88  74  63 CALM      29.98S HX  96
PERRY          MOSUNNY   89  77  66 CALM      29.98F HX 101
CROSS CITY     MOSUNNY   89  74  59 E3        30.02F HX  98
JACKSONVILLE   MOSUNNY   88  73  61 CALM      29.96F HX  95
$$

!FLZ112-006-005-002-011-231700
...Florida Panhandle...

CITY           SKY/WX    TMP DP  RH WIND       PRES   REMARKS
MARIANNA       SUNNY     91  73  55 NW8       29.97F HX  99
BONIFAY        NOT AVBL
PANAMA CITY NW FAIR      89  73  59 VRB3      29.97F HX  97
TYNDALL AFB    MOSUNNY   89  73  59 NW3       29.98F HX  96
TYND DRONE APT FAIR      88  74  62 NE6       29.98F HX  96
DE FUNIAK SPR  FAIR      86  72  62 N5        30.00S HX  93
EGLIN AFB      MOSUNNY   89  70  53 NW5       29.97F HX  95
DESTIN         SUNNY     91  73  55 NE6       29.98S HX  99
HURLBURT       SUNNY     89  56  32 CALM      29.96F
CRESTVIEW      SUNNY     89  71  55 CALM      30.00F HX  95
PENSACOLA      PTSUNNY   87  73  62 NE7       29.98S HX  94
$$

!ALZ063-066-231700
...South Alabama...

CITY           SKY/WX    TMP DP  RH WIND       PRES   REMARKS
DOTHAN         MOSUNNY   89  75  63 VRB3      30.02F HX  99
OZARK CAIRNS   MOSUNNY   85  74  67 NW7       29.99S HX  93
FT RUCKER HELI PTSUNNY   88  75  66 W6        29.98F HX  97
RUCKER HELI 3  FAIR      87  75  68 N5        29.99S HX  95
RUCKER HELI 2  FAIR      88  75  64 NW5       29.98S HX  97
FLORALA APT      N/A    N/A N/A N/A MISG      30.01S
ANDALUSIA      MOSUNNY   94  75  54 N5        29.99S HX 105
TROY           PTSUNNY   88  76  67 NW8       29.99F HX  99
EUFALA         PTSUNNY   87  76  69 W5        29.97F HX  97
MOBILE         CLOUDY    88  74  63 NW7       30.00S HX  96
$$

!GAZ120>161-231700
...Southwest and South Central Georgia...

CITY           SKY/WX    TMP DP  RH WIND       PRES   REMARKS
THOMASVILLE    PTSUNNY   90  73  58 N7        29.99F HX  98
BAINBRIDGE     SUNNY     90  77  66 W5        29.98F HX 102
MOODY AFB      PTSUNNY   88  75  64 NW8       29.97S HX  98
VALDOSTA       SUNNY     89  75  63 VRB3      29.97F HX  99
MOULTRIE       MOSUNNY   88  73  62 N5        29.99F HX  96
BLAKELY        PTSUNNY   90  72  55 W6        29.98F HX  96
ALBANY         PTSUNNY   91  74  57 W5        29.99F HX 100
TIFTON         CLOUDY    88  73  61 NW7       29.98S HX  95
FITZGERALD     FAIR      90  77  64 N8        30.00F HX 102
CORDELE        FAIR      92  74  54 W5        29.98F HX 101
AMERICUS       FAIR      88  68  51 W7        29.99F HX  91
HOMERVILLE     FAIR      90  73  58 NW6       29.98S HX  98
$$

!GMZ750-755-770-775-231700
...Coastal and Buoy Obs...

STATION/POSITION TIME  TEMP    WIND        PRES    VSBY  WAVE
                       AIR SEA DIR/SP/G                  HT/PER
                 (UTC) (F)     (DEG/KT/KT) (MB)    (MI)  (FT/S)
KEATON BEACH     1600   85     280/  7/ 10 1014.9F
CEDAR KEY        1600   84     160/  2/  2 1015.3F
C TOWER          1600   83                 1016.0F
APALACHICOLA BUO 1550   85 86   70/  8/  8 1014.5F         1/ 8
PANAMA CITY BUOY 1550   85 86   50/  6/  8 1014.8F         2/ 9
MOBILE BUOY      1600   85 87   30/  4/  6 1015.2
ORANGE BCH AL BU 1550   82 87   30/  6/  8 1014.9F         2/ 7
$$




USA.gov is the U.S. government's official web portal to all federal, state and local government web resources and services.